Home > Weather > Narragansett > Past weeks

Flag for USA Past Weather in Narragansett, Rhode Island, USA — Yesterday and Last 2 Weeks

Now
72 °F

Partly sunny.


Feels Like: 72 °F
Forecast: 67 / 73 °F
Wind: 10 mph from Southwest

Location: Newport State Airport

Current Time: Jun 28, 2016 at 11:10:20 AM

Latest Report: Jun 28, 2016 at 10:53 AM


Visibility: 10 mi

Pressure: 30.01 "Hg

Humidity: 81%

Dew Point: 66 °F

Location of NarragansettLocation

Past Weather in Narragansett — Graph

°F

Narragansett Temperature Yesterday

Maximum temperature yesterday: 74 °F (at 11:53 AM)
Minimum temperature yesterday: 62 °F (at 12:53 AM)
Average temperature yesterday: 68 °F

High & Low Weather Summary for the Past Weeks

 TemperatureHumidityPressure
High82 °F (Jun 15, 1:53 PM)97% (Jun 19, 5:53 AM)30.36 "Hg (Jun 19, 5:53 AM)
Low54 °F (Jun 26, 3:53 AM)31% (Jun 15, 1:53 PM)29.68 "Hg (Jun 13, 2:53 PM)
Average67 °F69%29.99 "Hg
* Reported Jun 13 8:53 AM — Jun 28 8:53 AM, Narragansett, Weather by CustomWeather, © 2016

Note: Actual official high and low records may vary slightly from our data, if they occured in-between our weather recording intervals... More about our weather records

Advertising

Narragansett Weather History for the Previous 24 Hours

Scroll right to see more
 ConditionsComfort  
Time TempWeatherWind HumidityBarometerVisibility
8:53 AM
Tue, Jun 28
70 °FSunny.13 mph87%30.02 "Hg10 mi
7:53 AM69 °FScattered clouds.9 mph90%30.01 "Hg10 mi
6:53 AM68 °FPassing clouds.8 mph93%30.01 "Hg10 mi
5:53 AM67 °FClear.7 mph97%30.00 "Hg10 mi
4:53 AM67 °FPassing clouds.9 mph93%30.00 "Hg10 mi
3:53 AM67 °FPassing clouds.8 mph93%30.00 "Hg10 mi
2:53 AM68 °FPassing clouds.10 mph84%30.02 "Hg10 mi
1:53 AM68 °FPassing clouds.10 mph84%30.03 "Hg10 mi
12:53 AM68 °FPassing clouds.10 mph84%30.04 "Hg10 mi
11:53 PM
Mon, Jun 27
69 °FPassing clouds.10 mph81%30.05 "Hg10 mi
10:53 PM68 °FPassing clouds.10 mph84%30.05 "Hg10 mi
9:53 PM68 °FPassing clouds.9 mph87%30.05 "Hg10 mi
8:53 PM69 °FOvercast.12 mph81%30.04 "Hg10 mi
7:53 PM69 °FScattered clouds.13 mph81%30.04 "Hg10 mi
6:53 PM69 °FSunny.10 mph84%30.04 "Hg10 mi
5:53 PM71 °FPartly sunny.14 mph76%30.05 "Hg10 mi
4:53 PM71 °FPartly sunny.10 mph76%30.05 "Hg10 mi
3:53 PM70 °FOvercast.13 mph76%30.06 "Hg10 mi
2:53 PM70 °FPartly sunny.15 mph76%30.07 "Hg10 mi
1:53 PM74 °FSunny.13 mph69%30.08 "Hg10 mi
12:53 PM74 °FSunny.8 mph57%30.09 "Hg10 mi
11:53 AM74 °FSunny.8 mph56%30.11 "Hg10 mi
Weather by CustomWeather, © 2016

See weather overviewHow to use our weather pages